TimeCST,TemperatureF,Dew PointF,Humidity,Sea Level PressureIn,VisibilityMPH,Wind Direction,Wind SpeedMPH,Gust SpeedMPH,PrecipitationIn,Events,Conditions,WindDirDegrees,DateUTC
12:15 AM,30.7,30.2,98,29.74,4.0,ESE,17.3,-,N/A,,Overcast,120,2013-02-10 06:15:00
12:35 AM,30.6,30.0,98,29.74,4.0,SE,20.7,-,N/A,,Overcast,130,2013-02-10 06:35:00
12:55 AM,30.6,30.0,98,29.74,4.0,ESE,18.4,-,N/A,,Overcast,120,2013-02-10 06:55:00
1:15 AM,30.7,30.2,98,29.72,3.0,ESE,17.3,-,N/A,,Overcast,120,2013-02-10 07:15:00
1:35 AM,30.2,30.0,99,29.71,3.0,SE,16.1,-,N/A,,Overcast,130,2013-02-10 07:35:00
1:55 AM,30.2,30.0,99,29.69,3.0,ESE,16.1,-,N/A,,Overcast,120,2013-02-10 07:55:00
2:15 AM,30.2,30.0,99,29.66,3.0,ESE,13.8,-,N/A,,Overcast,110,2013-02-10 08:15:00
2:35 AM,30.2,30.2,100,29.65,3.0,ESE,17.3,20.7,N/A,,Overcast,110,2013-02-10 08:35:00
2:55 AM,30.6,30.6,100,29.66,3.0,ESE,17.3,21.9,N/A,,Overcast,120,2013-02-10 08:55:00
3:14 AM,30.7,30.7,100,29.64,3.0,ESE,18.4,-,N/A,,Overcast,120,2013-02-10 09:14:00
3:35 AM,30.9,30.9,100,29.61,2.0,ESE,16.1,24.2,N/A,,Overcast,120,2013-02-10 09:35:00
3:55 AM,30.9,30.9,100,29.58,3.0,ESE,16.1,-,N/A,,Overcast,110,2013-02-10 09:55:00
4:14 AM,30.9,30.9,100,29.60,2.5,ESE,16.1,21.9,N/A,Snow,Light Snow,120,2013-02-10 10:14:00
4:35 AM,31.1,31.1,100,29.56,2.0,ESE,5.8,10.4,N/A,Snow,Light Snow,110,2013-02-10 10:35:00
4:55 AM,31.1,31.1,100,29.55,5.0,SE,12.7,-,N/A,,Overcast,130,2013-02-10 10:55:00
5:15 AM,31.1,31.5,100,29.53,2.0,ESE,18.4,23.0,0.01,Snow,Light Snow,110,2013-02-10 11:15:00
5:35 AM,31.5,31.6,100,29.53,3.0,ESE,18.4,26.5,0.01,Snow,Light Snow,110,2013-02-10 11:35:00
5:55 AM,31.3,31.3,100,29.49,3.0,ESE,15.0,20.7,0.01,Snow,Light Snow,110,2013-02-10 11:55:00
6:15 AM,31.1,31.1,100,29.46,3.0,East,13.8,-,0.01,Snow,Light Snow,90,2013-02-10 12:15:00
6:35 AM,31.6,31.8,100,29.47,4.0,ESE,13.8,18.4,0.01,,Overcast,110,2013-02-10 12:35:00
6:55 AM,31.8,32.0,100,29.47,4.0,ESE,11.5,18.4,0.01,Snow,Light Snow,110,2013-02-10 12:55:00
7:15 AM,31.8,32.0,100,29.46,3.0,ESE,17.3,20.7,0.01,Snow,Light Snow,110,2013-02-10 13:15:00
7:35 AM,31.8,32.0,100,29.44,1.5,East,13.8,-,0.03,Snow,Light Snow,100,2013-02-10 13:35:00
7:55 AM,31.6,31.8,100,29.44,1.0,ESE,11.5,-,0.05,Snow,Light Snow,110,2013-02-10 13:55:00
8:15 AM,31.6,31.8,100,29.43,1.2,East,10.4,-,0.01,Snow,Light Snow,100,2013-02-10 14:15:00
8:34 AM,31.8,32.0,100,29.43,0.5,East,11.5,-,0.02,Snow,Snow,100,2013-02-10 14:34:00
8:55 AM,31.8,32.0,100,29.41,0.5,East,11.5,-,0.04,Snow,Snow,100,2013-02-10 14:55:00
9:15 AM,31.8,32.0,100,29.39,0.8,East,11.5,-,N/A,Snow,Light Snow,90,2013-02-10 15:15:00
9:35 AM,31.8,32.0,100,29.39,1.2,East,12.7,-,N/A,Snow,Light Snow,100,2013-02-10 15:35:00
9:55 AM,31.8,32.0,100,29.38,1.0,East,11.5,-,0.01,Snow,Light Snow,100,2013-02-10 15:55:00
10:15 AM,32.0,32.0,100,29.36,0.8,East,10.4,-,0.01,Snow,Light Snow,100,2013-02-10 16:15:00
10:35 AM,32.0,32.0,100,29.34,1.8,East,9.2,-,0.01,Snow,Light Snow,90,2013-02-10 16:35:00
10:55 AM,32.0,32.0,100,29.34,1.5,East,9.2,-,0.02,Snow,Light Snow,90,2013-02-10 16:55:00
11:15 AM,32.0,32.0,100,29.33,1.0,East,9.2,-,0.01,Snow,Light Snow,90,2013-02-10 17:15:00
11:35 AM,32.0,32.0,100,29.32,7.0,East,8.1,-,0.01,,Overcast,90,2013-02-10 17:35:00
11:54 AM,32.5,32.4,99,29.31,4.0,East,9.2,-,0.01,,Overcast,100,2013-02-10 17:54:00
12:16 PM,32.5,32.4,99,29.29,2.0,East,9.2,-,N/A,,Overcast,100,2013-02-10 18:16:00
12:35 PM,32.7,32.7,100,29.27,1.2,East,8.1,-,N/A,,Overcast,100,2013-02-10 18:35:00
12:54 PM,-9999,-9999,N/A,29.26,0.5,East,9.2,-,N/A,Fog,Fog,90,2013-02-10 18:54:00
1:15 PM,-9999,-9999,N/A,29.26,0.2,East,5.8,-,N/A,Fog,Fog,80,2013-02-10 19:15:00
1:35 PM,32.5,32.5,100,29.25,0.2,NE,5.8,-,N/A,Snow,Light Snow,50,2013-02-10 19:35:00
1:55 PM,32.5,32.5,100,29.24,0.2,NE,5.8,-,N/A,Fog,Fog,50,2013-02-10 19:55:00
2:15 PM,32.5,32.7,100,29.23,0.2,NNE,5.8,-,N/A,Fog,Fog,20,2013-02-10 20:15:00
2:35 PM,32.5,32.5,100,29.23,0.2,NNE,6.9,-,N/A,Fog,Fog,20,2013-02-10 20:35:00
2:55 PM,32.2,32.4,100,29.23,0.2,North,6.9,-,N/A,,Light Drizzle,10,2013-02-10 20:55:00
3:15 PM,32.0,32.0,100,29.23,0.2,North,9.2,-,N/A,Fog,Fog,360,2013-02-10 21:15:00
3:35 PM,32.0,32.0,100,29.24,0.2,North,10.4,-,N/A,Snow,Light Snow,360,2013-02-10 21:35:00
3:55 PM,32.0,32.0,100,29.24,0.8,NNW,11.5,-,0.01,Snow,Light Snow,340,2013-02-10 21:55:00
4:14 PM,31.8,32.0,100,29.25,0.2,NNW,12.7,-,0.02,Snow,Snow,340,2013-02-10 22:14:00
4:35 PM,30.7,30.9,100,29.26,0.2,NNW,12.7,-,0.03,Snow,Snow,330,2013-02-10 22:35:00
4:55 PM,30.2,30.2,100,29.27,0.2,NNW,13.8,18.4,0.03,Snow,Snow,330,2013-02-10 22:55:00
5:15 PM,28.2,28.2,100,29.28,0.5,NW,19.6,24.2,N/A,Snow,Snow,320,2013-02-10 23:15:00
5:35 PM,27.0,26.6,99,29.29,0.2,NW,21.9,26.5,N/A,Snow,Snow,320,2013-02-10 23:35:00
5:55 PM,26.2,25.7,98,29.30,1.0,NNW,21.9,27.6,N/A,Snow,Light Snow,330,2013-02-10 23:55:00
6:15 PM,26.1,25.5,98,29.32,1.2,NW,21.9,28.8,N/A,Snow,Light Snow,320,2013-02-11 00:15:00
6:35 PM,25.5,24.8,97,29.32,1.8,NNW,21.9,27.6,N/A,Snow,Light Snow,330,2013-02-11 00:35:00
6:55 PM,25.2,24.4,97,29.34,3.0,NW,21.9,27.6,N/A,,Overcast,320,2013-02-11 00:55:00
7:15 PM,25.0,24.3,97,29.35,2.5,NW,24.2,28.8,N/A,Snow,Light Snow,320,2013-02-11 01:15:00
7:35 PM,24.6,23.9,97,29.36,2.0,NW,24.2,29.9,N/A,Snow,Light Snow,320,2013-02-11 01:35:00
7:55 PM,24.6,23.7,96,29.37,1.8,NW,24.2,29.9,N/A,Snow,Light Snow,320,2013-02-11 01:55:00
8:15 PM,24.6,23.7,96,29.38,2.5,NW,25.3,28.8,N/A,Snow,Light Snow,320,2013-02-11 02:15:00
8:34 PM,24.6,23.7,96,29.40,1.8,NW,26.5,-,N/A,Snow,Light Snow,310,2013-02-11 02:34:00
8:55 PM,24.8,23.9,96,29.41,2.0,NW,25.3,33.4,N/A,Snow,Light Snow,320,2013-02-11 02:55:00
9:15 PM,24.8,23.9,96,29.42,2.5,NW,23.0,32.2,N/A,Snow,Light Snow,310,2013-02-11 03:15:00
9:35 PM,25.2,23.9,95,29.43,4.0,NW,23.0,31.1,N/A,Snow,Light Snow,310,2013-02-11 03:35:00
9:55 PM,25.0,23.9,96,29.44,2.5,NW,25.3,31.1,N/A,Snow,Light Snow,320,2013-02-11 03:55:00
10:15 PM,25.2,23.9,95,29.45,2.0,NW,25.3,35.7,N/A,Snow,Light Snow,310,2013-02-11 04:15:00
10:35 PM,25.2,24.3,96,29.46,1.8,NW,25.3,36.8,N/A,Snow,Light Snow,310,2013-02-11 04:35:00
10:55 PM,25.2,24.3,96,29.47,2.0,NW,28.8,36.8,N/A,Snow,Light Snow,310,2013-02-11 04:55:00
11:15 PM,25.2,23.9,95,29.49,2.0,NW,28.8,35.7,N/A,,Overcast,310,2013-02-11 05:15:00
11:35 PM,25.2,23.9,95,29.50,2.0,NW,28.8,-,N/A,Snow,Light Snow,310,2013-02-11 05:35:00
11:54 PM,24.8,23.9,96,29.52,1.8,NW,32.2,38.0,N/A,Snow,Light Snow,310,2013-02-11 05:54:00